Starlink 3859

operational
NORAD ID: 52470 Int'l Des: 2022-049 Owner: SPXS Country: US Constellation: starlink
LEOCIRCULAR

Über Starlink 3859

Beschreibung wird geladen...

Live-Position

3D-Globus wird geladen...

Nächste Überflüge

Höhenverlauf

Altitude vs Time

uPlot chart will show altitude changes over time

Zweizeiliger Elementsatz

1 52470U 22049V 25350.24667732 .00000011 00000-0 18808-4 0 9998
2 52470 53.2175 73.7113 0001399 77.1845 282.9304 15.08839828199659
Epoch: 16. Dez. 2025 • Age: 22 hours

Aktueller Status

Höhe 548.6 km
Geschwindigkeit 7.59 km/s
Subsatellitenpunkt -27.45°S, 133.33°E
Startdatum 6. Mai 2022
Alter 3.6 years
Typ internet

Technische Details

Klassifizierung Payload
Masse 297.00 kg
Trockenmasse 220.00 kg
Gesamtmasse 297.00 kg
Länge 0.20 m
Durchmesser 2.80 m
Spannweite 9.00 m
Form Box + pan
Hersteller SPXS
Bus-Typ Starlink
Phasenstatus In Orbit
Besitzer/Staat SPXS/US

Große Konstellationen

Loading constellations...